SWA2257 KLAS-KSJC

Flight info

Callsign SWA2257
Flight time 0h 58m
Altitude 32000
Route JOHKR5 KENNO RUSME RAZRR5
Aircraft B738/M-SDE2E3FGHIRWXY/LB1

Departure

Time 2026-05-05 15:38
Airport Harry Reid International Airport (KLAS)

Arrival

Time 2026-05-05 16:36
Airport Norman Y. Mineta San Jose International Airport (KSJC)
Time Latitude Longitude Altitude Speed Heading
2026-05-05 15:24 36.08227 -115.15277 2096 ft 0 kts 357°
2026-05-05 15:26 36.08224 -115.15276 2096 ft 2 kts 357°
2026-05-05 15:27 36.08207 -115.15275 2096 ft 2 kts 357°
2026-05-05 15:27 36.08190 -115.15275 2096 ft 2 kts 357°
2026-05-05 15:27 36.08172 -115.15274 2096 ft 2 kts 357°
2026-05-05 15:27 36.08166 -115.15273 2096 ft 0 kts 357°
2026-05-05 15:28 36.08169 -115.15273 2096 ft 1 kts 355°
2026-05-05 15:28 36.08170 -115.15279 2096 ft 0 kts 298°
2026-05-05 15:28 36.08172 -115.15283 2096 ft 1 kts 297°
2026-05-05 15:28 36.08174 -115.15288 2096 ft 0 kts 297°
2026-05-05 15:29 36.08173 -115.15327 2096 ft 11 kts 268°
2026-05-05 15:29 36.08170 -115.15426 2096 ft 12 kts 268°
2026-05-05 15:30 36.08222 -115.15526 2098 ft 17 kts 328°
2026-05-05 15:30 36.08325 -115.15592 2099 ft 16 kts 333°
2026-05-05 15:30 36.08425 -115.15653 2100 ft 16 kts 337°
2026-05-05 15:30 36.08522 -115.15705 2103 ft 16 kts 336°
2026-05-05 15:31 36.08629 -115.15764 2105 ft 17 kts 341°
2026-05-05 15:31 36.08740 -115.15756 2104 ft 16 kts 20°
2026-05-05 15:31 36.08847 -115.15701 2103 ft 19 kts 22°
2026-05-05 15:31 36.08973 -115.15632 2100 ft 20 kts 26°
2026-05-05 15:32 36.09093 -115.15559 2098 ft 19 kts 26°
2026-05-05 15:32 36.09214 -115.15498 2097 ft 18 kts 21°
2026-05-05 15:32 36.09329 -115.15433 2097 ft 20 kts 26°
2026-05-05 15:32 36.09465 -115.15358 2096 ft 21 kts 25°
2026-05-05 15:33 36.09599 -115.15279 2096 ft 22 kts 25°
2026-05-05 15:33 36.09735 -115.15204 2095 ft 20 kts
2026-05-05 15:33 36.09773 -115.15222 2095 ft 0 kts 308°
2026-05-05 15:35 36.09790 -115.15251 2094 ft 10 kts 303°
2026-05-05 15:36 36.09816 -115.15347 2092 ft 3 kts 252°
2026-05-05 15:36 36.09786 -115.15396 2093 ft 8 kts 212°
2026-05-05 15:36 36.09768 -115.15406 2093 ft 3 kts 205°
2026-05-05 15:36 36.09762 -115.15410 2093 ft 3 kts 205°
2026-05-05 15:37 36.09738 -115.15424 2094 ft 5 kts 205°
2026-05-05 15:37 36.09479 -115.15572 2098 ft 81 kts 204°
2026-05-05 15:37 36.08742 -115.15990 2118 ft 149 kts 204°
2026-05-05 15:37 36.07665 -115.16596 2512 ft 182 kts 205°
2026-05-05 15:38 36.06458 -115.17332 3191 ft 206 kts 206°
2026-05-05 15:38 36.05065 -115.18161 3478 ft 238 kts 206°
2026-05-05 15:38 36.03470 -115.19106 3689 ft 268 kts 205°
2026-05-05 15:38 36.01765 -115.20114 4365 ft 268 kts 205°
2026-05-05 15:39 36.00098 -115.21073 5279 ft 262 kts 202°
2026-05-05 15:39 35.98390 -115.21918 6104 ft 267 kts 208°
2026-05-05 15:39 35.97040 -115.23491 6965 ft 271 kts 231°
2026-05-05 15:39 35.95884 -115.25359 7767 ft 275 kts 231°
2026-05-05 15:40 35.95101 -115.26596 8329 ft 277 kts 230°
2026-05-05 15:40 35.93885 -115.28463 9147 ft 282 kts 229°
2026-05-05 15:40 35.92624 -115.30344 9953 ft 286 kts 229°
2026-05-05 15:40 35.91339 -115.32235 10619 ft 288 kts 228°
2026-05-05 15:41 35.90050 -115.34123 10946 ft 285 kts 228°
2026-05-05 15:41 35.88868 -115.36136 10988 ft 296 kts 245°
2026-05-05 15:41 35.88434 -115.38605 11018 ft 297 kts 268°
2026-05-05 15:41 35.88688 -115.41135 11037 ft 305 kts 290°
2026-05-05 15:42 35.89866 -115.43402 11218 ft 328 kts 311°
2026-05-05 15:42 35.91485 -115.45526 11409 ft 352 kts 313°
2026-05-05 15:42 35.93236 -115.47755 11732 ft 369 kts 313°
2026-05-05 15:42 35.95049 -115.50054 12360 ft 376 kts 314°
2026-05-05 15:43 35.96870 -115.52379 13181 ft 378 kts 313°
2026-05-05 15:43 35.98710 -115.54744 13812 ft 386 kts 313°
2026-05-05 15:43 36.00574 -115.57157 14455 ft 389 kts 313°
2026-05-05 15:43 36.02426 -115.59570 15306 ft 386 kts 313°
2026-05-05 15:44 36.04275 -115.61988 15974 ft 389 kts 313°
2026-05-05 15:44 36.06145 -115.64441 16556 ft 395 kts 313°
2026-05-05 15:44 36.08028 -115.66912 17297 ft 395 kts 313°
2026-05-05 15:44 36.09912 -115.69389 18011 ft 397 kts 313°
2026-05-05 15:45 36.11810 -115.71887 18586 ft 400 kts 313°
2026-05-05 15:45 36.13721 -115.74404 19114 ft 404 kts 313°
2026-05-05 15:45 36.15653 -115.76950 19634 ft 407 kts 313°
2026-05-05 15:45 36.17594 -115.79512 20175 ft 410 kts 313°
2026-05-05 15:46 36.19556 -115.82101 20715 ft 413 kts 312°
2026-05-05 15:46 36.21526 -115.84704 21220 ft 416 kts 312°
2026-05-05 15:46 36.23516 -115.87335 21708 ft 420 kts 312°
2026-05-05 15:46 36.25523 -115.89987 22207 ft 423 kts 312°
2026-05-05 15:47 36.27539 -115.92657 22708 ft 426 kts 312°
2026-05-05 15:47 36.29572 -115.95352 23212 ft 429 kts 312°
2026-05-05 15:47 36.31616 -115.98063 23671 ft 431 kts 311°
2026-05-05 15:47 36.33668 -116.00787 24076 ft 434 kts 312°
2026-05-05 15:48 36.35734 -116.03532 24453 ft 436 kts 312°
2026-05-05 15:48 36.37812 -116.06294 24831 ft 439 kts 311°
2026-05-05 15:48 36.39906 -116.09079 25180 ft 442 kts 311°
2026-05-05 15:48 36.42008 -116.11880 25534 ft 445 kts 312°
2026-05-05 15:49 36.44123 -116.14699 25904 ft 447 kts 311°
2026-05-05 15:49 36.46248 -116.17533 26264 ft 449 kts 311°
2026-05-05 15:49 36.48381 -116.20380 26605 ft 452 kts 312°
2026-05-05 15:49 36.50527 -116.23246 26944 ft 454 kts 312°
2026-05-05 15:50 36.52655 -116.26093 27288 ft 456 kts 313°
2026-05-05 15:50 36.54812 -116.28985 27716 ft 456 kts 313°
2026-05-05 15:50 36.56997 -116.31913 28163 ft 456 kts 314°
2026-05-05 15:50 36.59151 -116.34801 28647 ft 454 kts 314°
2026-05-05 15:51 36.61295 -116.37678 29103 ft 454 kts 314°
2026-05-05 15:51 36.63439 -116.40559 29533 ft 454 kts 314°
2026-05-05 15:51 36.65582 -116.43439 29897 ft 454 kts 314°
2026-05-05 15:52 36.69883 -116.49227 29869 ft 458 kts 314°
2026-05-05 15:52 36.74174 -116.55018 29867 ft 453 kts 314°
2026-05-05 15:53 36.78449 -116.60796 29878 ft 454 kts 315°
2026-05-05 15:53 36.82730 -116.66588 29885 ft 454 kts 315°
2026-05-05 15:54 36.87013 -116.72396 29872 ft 455 kts 315°
2026-05-05 15:54 36.91293 -116.78210 29887 ft 455 kts 315°
2026-05-05 15:55 36.95576 -116.84039 29879 ft 456 kts 315°
2026-05-05 15:55 36.99859 -116.89883 29888 ft 455 kts 316°
2026-05-05 15:56 37.04135 -116.95720 29872 ft 454 kts 316°
2026-05-05 15:56 37.08397 -117.01551 29894 ft 453 kts 317°
2026-05-05 15:57 37.12646 -117.07375 29889 ft 453 kts 317°
2026-05-05 15:57 37.16888 -117.13201 29892 ft 452 kts 317°
2026-05-05 15:58 37.21093 -117.18987 29868 ft 451 kts 319°
2026-05-05 15:58 37.25318 -117.24808 29888 ft 450 kts 319°
2026-05-05 15:59 37.29535 -117.30621 29894 ft 450 kts 320°
2026-05-05 15:59 37.34137 -117.35821 29893 ft 443 kts 327°
2026-05-05 16:00 37.38904 -117.40755 29893 ft 444 kts 326°
2026-05-05 16:00 37.43620 -117.45777 29899 ft 445 kts 326°
2026-05-05 16:01 37.47784 -117.51610 29911 ft 465 kts 302°
2026-05-05 16:01 37.48846 -117.55507 29884 ft 479 kts 286°
2026-05-05 16:01 37.48988 -117.59741 29903 ft 490 kts 270°
2026-05-05 16:02 37.48289 -117.68295 29882 ft 491 kts 268°
2026-05-05 16:02 37.47495 -117.76837 29888 ft 491 kts 268°
2026-05-05 16:03 37.46765 -117.85373 29889 ft 490 kts 269°
2026-05-05 16:03 37.46076 -117.93909 29904 ft 491 kts 269°
2026-05-05 16:04 37.45394 -118.02416 29901 ft 492 kts 269°
2026-05-05 16:04 37.44695 -118.10987 29900 ft 493 kts 269°
2026-05-05 16:05 37.43985 -118.19597 29969 ft 495 kts 269°
2026-05-05 16:05 37.43266 -118.28206 29956 ft 494 kts 269°
2026-05-05 16:06 37.42543 -118.36797 29987 ft 494 kts 269°
2026-05-05 16:06 37.41812 -118.45429 29982 ft 496 kts 269°
2026-05-05 16:07 37.41178 -118.52842 29975 ft 498 kts 269°
2026-05-05 16:07 37.40432 -118.61512 29956 ft 499 kts 269°
2026-05-05 16:08 37.39677 -118.70213 29957 ft 501 kts 269°
2026-05-05 16:08 37.38905 -118.78923 29996 ft 501 kts 268°
2026-05-05 16:09 37.37835 -118.87638 29972 ft 505 kts 265°
2026-05-05 16:09 37.36586 -118.96336 29963 ft 505 kts 265°
2026-05-05 16:10 37.35361 -119.05005 29976 ft 503 kts 265°
2026-05-05 16:10 37.34173 -119.13630 29979 ft 503 kts 266°
2026-05-05 16:11 37.32986 -119.22298 29978 ft 504 kts 266°
2026-05-05 16:12 37.30657 -119.39121 30005 ft 503 kts 266°
2026-05-05 16:13 37.27634 -119.60658 29290 ft 499 kts 265°
2026-05-05 16:13 37.27032 -119.64897 28779 ft 494 kts 265°
2026-05-05 16:13 37.26426 -119.69158 28284 ft 488 kts 265°
2026-05-05 16:14 37.25418 -119.76230 27440 ft 479 kts 265°
2026-05-05 16:14 37.24255 -119.84383 26455 ft 470 kts 265°
2026-05-05 16:15 37.23110 -119.92351 25797 ft 454 kts 265°
2026-05-05 16:15 37.22121 -119.99974 25217 ft 438 kts 268°
2026-05-05 16:16 37.21374 -120.07491 24381 ft 431 kts 268°
2026-05-05 16:16 37.20625 -120.14920 23478 ft 427 kts 268°
2026-05-05 16:17 37.19848 -120.22251 22534 ft 421 kts 267°
2026-05-05 16:17 37.19458 -120.25874 22090 ft 418 kts 267°
2026-05-05 16:18 37.18684 -120.33043 21227 ft 411 kts 267°
2026-05-05 16:18 37.18300 -120.36584 20803 ft 408 kts 267°
2026-05-05 16:18 37.17531 -120.43594 19987 ft 403 kts 266°
2026-05-05 16:19 37.17146 -120.47058 19580 ft 400 kts 266°
2026-05-05 16:19 37.16762 -120.50509 19167 ft 398 kts 266°
2026-05-05 16:19 37.15997 -120.57366 18300 ft 396 kts 266°
2026-05-05 16:20 37.15236 -120.64162 17395 ft 391 kts 266°
2026-05-05 16:20 37.14488 -120.70813 16568 ft 385 kts 266°
2026-05-05 16:21 37.13743 -120.77413 15741 ft 379 kts 266°
2026-05-05 16:22 37.12684 -120.86980 14573 ft 369 kts 266°
2026-05-05 16:22 37.11981 -120.93311 13804 ft 363 kts 265°
2026-05-05 16:23 37.11288 -120.99518 12987 ft 356 kts 265°
2026-05-05 16:23 37.10946 -121.02575 12600 ft 353 kts 265°
2026-05-05 16:23 37.10269 -121.08591 11880 ft 345 kts 265°
2026-05-05 16:24 37.09935 -121.11548 11512 ft 340 kts 265°
2026-05-05 16:24 37.09882 -121.14426 11138 ft 324 kts 279°
2026-05-05 16:24 37.10559 -121.19788 10462 ft 302 kts 282°
2026-05-05 16:25 37.10881 -121.22318 10129 ft 293 kts 281°
2026-05-05 16:25 37.11479 -121.27268 9367 ft 283 kts 281°
2026-05-05 16:25 37.11764 -121.29696 9002 ft 281 kts 281°
2026-05-05 16:26 37.12231 -121.33734 8417 ft 278 kts 280°
2026-05-05 16:26 37.12774 -121.38492 7734 ft 275 kts 280°
2026-05-05 16:27 37.13041 -121.40846 7394 ft 277 kts 279°
2026-05-05 16:27 37.13312 -121.43238 7050 ft 278 kts 279°
2026-05-05 16:27 37.13549 -121.45367 6749 ft 279 kts 279°
2026-05-05 16:27 37.13816 -121.47781 6403 ft 280 kts 279°
2026-05-05 16:28 37.14088 -121.50202 6044 ft 281 kts 279°
2026-05-05 16:28 37.14357 -121.52625 5701 ft 280 kts 279°
2026-05-05 16:28 37.14623 -121.55013 5417 ft 272 kts 279°
2026-05-05 16:28 37.14880 -121.57321 5122 ft 263 kts 279°
2026-05-05 16:29 37.15124 -121.59555 4837 ft 254 kts 279°
2026-05-05 16:29 37.15362 -121.61717 4541 ft 247 kts 279°
2026-05-05 16:29 37.15594 -121.63817 4266 ft 240 kts 279°
2026-05-05 16:29 37.15818 -121.65854 4095 ft 232 kts 279°
2026-05-05 16:30 37.16035 -121.67824 4032 ft 226 kts 279°
2026-05-05 16:30 37.16246 -121.69746 4025 ft 221 kts 279°
2026-05-05 16:30 37.16770 -121.71514 4014 ft 218 kts 311°
2026-05-05 16:30 37.17933 -121.72740 4036 ft 222 kts 320°
2026-05-05 16:31 37.19088 -121.74007 4048 ft 217 kts 317°
2026-05-05 16:31 37.20179 -121.75240 4011 ft 205 kts 317°
2026-05-05 16:31 37.21240 -121.76420 3864 ft 205 kts 318°
2026-05-05 16:31 37.22312 -121.77605 3575 ft 206 kts 317°
2026-05-05 16:32 37.23372 -121.78777 3303 ft 206 kts 317°
2026-05-05 16:32 37.24449 -121.79965 3032 ft 206 kts 318°
2026-05-05 16:32 37.25510 -121.81135 2748 ft 201 kts 318°
2026-05-05 16:32 37.26541 -121.82271 2478 ft 191 kts 318°
2026-05-05 16:33 37.27509 -121.83337 2242 ft 180 kts 318°
2026-05-05 16:33 37.28445 -121.84370 2009 ft 179 kts 318°
2026-05-05 16:33 37.29374 -121.85395 1773 ft 177 kts 319°
2026-05-05 16:33 37.30273 -121.86385 1505 ft 165 kts 319°
2026-05-05 16:34 37.31101 -121.87298 1280 ft 152 kts 319°
2026-05-05 16:34 37.31880 -121.88156 1094 ft 146 kts 319°
2026-05-05 16:34 37.32642 -121.88996 888 ft 146 kts 319°
2026-05-05 16:34 37.33410 -121.89842 689 ft 147 kts 319°
2026-05-05 16:35 37.34181 -121.90691 478 ft 148 kts 319°
2026-05-05 16:35 37.34950 -121.91554 276 ft 148 kts 318°
2026-05-05 16:35 37.35705 -121.92368 71 ft 135 kts 319°
2026-05-05 16:35 37.36341 -121.93065 55 ft 92 kts 319°
2026-05-05 16:36 37.36637 -121.93379 58 ft 32 kts 334°
2026-05-05 16:36 37.36817 -121.93291 59 ft 29 kts 49°
2026-05-05 16:36 37.36801 -121.93092 61 ft 26 kts 138°
2026-05-05 16:36 37.36670 -121.92946 54 ft 24 kts 138°
2026-05-05 16:37 37.36549 -121.92810 57 ft 23 kts 138°
2026-05-05 16:37 37.36465 -121.92645 56 ft 22 kts 118°
2026-05-05 16:37 37.36358 -121.92515 58 ft 21 kts 134°
2026-05-05 16:37 37.36366 -121.92407 59 ft 6 kts 51°
2026-05-05 16:38 37.36370 -121.92402 54 ft 0 kts 49°